Time,TemperatureF,DewpointF,PressureIn,WindDirection,WindDirectionDegrees,WindSpeedMPH,WindSpeedGustMPH,Humidity,HourlyPrecipIn,Conditions,Clouds,dailyrainin,SoftwareType,DateUTC
2013-03-15 00:13:00,49.1,36.2,30.17,SSE,167,0.0,3.4,61,0.00,,,0.00,VWS V14.01,2013-03-15 05:13:00,
2013-03-15 00:28:00,49.2,36.3,30.17,SSE,168,1.1,2.3,61,0.00,,,0.00,VWS V14.01,2013-03-15 05:28:00,
2013-03-15 00:43:00,49.7,36.4,30.17,SSE,151,0.0,3.4,60,0.00,,,0.00,VWS V14.01,2013-03-15 05:43:00,
2013-03-15 00:59:00,50.2,36.4,30.16,South,181,0.0,3.4,59,0.00,,,0.00,VWS V14.01,2013-03-15 05:59:00,
2013-03-15 01:13:00,50.6,36.4,30.16,East,96,0.0,5.8,58,0.00,,,0.00,VWS V14.01,2013-03-15 06:13:00,
2013-03-15 01:28:00,51.0,36.8,30.16,SSW,212,2.3,5.8,58,0.00,,,0.00,VWS V14.01,2013-03-15 06:28:00,
2013-03-15 01:44:00,51.1,36.8,30.15,SSW,198,1.1,5.8,58,0.00,,,0.00,VWS V14.01,2013-03-15 06:44:00,
2013-03-15 01:59:00,50.9,37.1,30.15,SSW,194,1.1,4.6,59,0.00,,,0.00,VWS V14.01,2013-03-15 06:59:00,
2013-03-15 02:13:00,50.6,36.8,30.14,SSW,194,1.1,4.6,59,0.00,,,0.00,VWS V14.01,2013-03-15 07:13:00,
2013-03-15 02:28:00,50.2,36.9,30.14,SSW,210,0.0,2.3,60,0.00,,,0.00,VWS V14.01,2013-03-15 07:28:00,
2013-03-15 02:43:00,49.8,36.9,30.14,SSW,197,0.0,2.3,61,0.00,,,0.00,VWS V14.01,2013-03-15 07:43:00,
2013-03-15 02:58:00,49.2,37.2,30.13,SSW,198,0.0,1.1,63,0.00,,,0.00,VWS V14.01,2013-03-15 07:58:00,
2013-03-15 03:14:00,48.5,37.3,30.13,SSW,199,0.0,2.3,65,0.00,,,0.00,VWS V14.01,2013-03-15 08:14:00,
2013-03-15 03:28:00,48.9,37.3,30.12,SSW,199,1.1,3.4,64,0.00,,,0.00,VWS V14.01,2013-03-15 08:28:00,
2013-03-15 03:44:00,49.4,37.8,30.12,SW,217,2.3,3.4,64,0.00,,,0.00,VWS V14.01,2013-03-15 08:44:00,
2013-03-15 03:58:00,50.2,38.1,30.11,SSW,204,0.0,4.6,63,0.00,,,0.00,VWS V14.01,2013-03-15 08:58:00,
2013-03-15 04:14:00,50.7,38.2,30.11,SSW,193,1.1,4.6,62,0.00,,,0.00,VWS V14.01,2013-03-15 09:14:00,
2013-03-15 04:28:00,51.2,38.6,30.11,SSW,207,2.3,5.8,62,0.00,,,0.00,VWS V14.01,2013-03-15 09:28:00,
2013-03-15 04:43:00,51.5,38.5,30.11,South,191,3.4,6.9,61,0.00,,,0.00,VWS V14.01,2013-03-15 09:43:00,
2013-03-15 04:58:00,51.7,38.7,30.11,SSW,195,3.4,8.1,61,0.00,,,0.00,VWS V14.01,2013-03-15 09:58:00,
2013-03-15 05:14:00,51.7,38.7,30.10,South,184,2.3,9.2,61,0.00,,,0.00,VWS V14.01,2013-03-15 10:14:00,
2013-03-15 05:29:00,51.4,38.8,30.10,South,191,1.1,5.8,62,0.00,,,0.00,VWS V14.01,2013-03-15 10:29:00,
2013-03-15 05:44:00,51.1,39.0,30.10,SSW,193,1.1,8.1,63,0.00,,,0.00,VWS V14.01,2013-03-15 10:44:00,
2013-03-15 05:59:00,50.9,39.2,30.10,SSW,205,3.4,8.1,64,0.00,,,0.00,VWS V14.01,2013-03-15 10:59:00,
2013-03-15 06:13:00,50.8,39.1,30.10,SSW,205,3.4,9.2,64,0.00,,,0.00,VWS V14.01,2013-03-15 11:13:00,
2013-03-15 06:29:00,50.7,39.4,30.10,SSW,204,2.3,8.1,65,0.00,,,0.00,VWS V14.01,2013-03-15 11:29:00,
2013-03-15 06:43:00,50.5,39.2,30.10,SSW,204,2.3,8.1,65,0.00,,,0.00,VWS V14.01,2013-03-15 11:43:00,
2013-03-15 06:58:00,50.5,39.6,30.10,SSW,198,3.4,9.2,66,0.00,,,0.00,VWS V14.01,2013-03-15 11:58:00,
2013-03-15 07:13:00,50.3,39.4,30.10,South,187,2.3,6.9,66,0.00,,,0.00,VWS V14.01,2013-03-15 12:13:00,
2013-03-15 07:28:00,50.3,39.8,30.10,SW,226,2.3,5.8,67,0.00,,,0.00,VWS V14.01,2013-03-15 12:28:00,
2013-03-15 07:43:00,50.7,39.8,30.10,SSW,212,3.4,6.9,66,0.00,,,0.00,VWS V14.01,2013-03-15 12:43:00,
2013-03-15 07:59:00,51.2,40.2,30.10,South,172,3.4,6.9,66,0.00,,,0.00,VWS V14.01,2013-03-15 12:59:00,
2013-03-15 08:13:00,52.1,40.7,30.10,South,189,3.4,9.2,65,0.00,,,0.00,VWS V14.01,2013-03-15 13:13:00,
2013-03-15 08:28:00,53.2,41.3,30.10,WSW,240,9.2,12.6,64,0.00,,,0.00,VWS V14.01,2013-03-15 13:28:00,
2013-03-15 08:43:00,54.4,42.1,30.10,South,170,3.4,12.6,63,0.00,,,0.00,VWS V14.01,2013-03-15 13:43:00,
2013-03-15 08:58:00,55.5,42.7,30.10,SW,219,4.6,11.5,62,0.00,,,0.00,VWS V14.01,2013-03-15 13:58:00,
2013-03-15 09:13:00,56.9,43.6,30.10,SSW,200,2.3,11.5,61,0.00,,,0.00,VWS V14.01,2013-03-15 14:13:00,
2013-03-15 09:28:00,58.7,44.4,30.10,South,186,5.8,12.6,59,0.00,,,0.00,VWS V14.01,2013-03-15 14:28:00,
2013-03-15 09:43:00,60.1,44.8,30.10,SSW,197,4.6,13.8,57,0.00,,,0.00,VWS V14.01,2013-03-15 14:43:00,
2013-03-15 09:59:00,61.7,45.4,30.10,SSW,195,6.9,12.6,55,0.00,,,0.00,VWS V14.01,2013-03-15 14:59:00,
2013-03-15 10:13:00,63.2,46.3,30.10,SSE,166,2.3,11.5,54,0.00,,,0.00,VWS V14.01,2013-03-15 15:13:00,
2013-03-15 10:28:00,64.6,46.6,30.10,SSW,200,6.9,12.6,52,0.00,,,0.00,VWS V14.01,2013-03-15 15:28:00,
2013-03-15 10:43:00,65.0,46.5,30.09,SSW,194,9.2,13.8,51,0.00,,,0.00,VWS V14.01,2013-03-15 15:43:00,
2013-03-15 10:58:00,65.3,46.7,30.09,South,174,8.1,17.2,51,0.00,,,0.00,VWS V14.01,2013-03-15 15:58:00,
2013-03-15 11:13:00,66.5,47.8,30.08,SSW,210,4.6,14.9,51,0.00,,,0.00,VWS V14.01,2013-03-15 16:13:00,
2013-03-15 11:28:00,67.3,48.0,30.07,South,188,3.4,12.6,50,0.00,,,0.00,VWS V14.01,2013-03-15 16:28:00,
2013-03-15 11:43:00,68.8,48.9,30.07,WSW,240,4.6,12.6,49,0.00,,,0.00,VWS V14.01,2013-03-15 16:43:00,
2013-03-15 11:58:00,69.5,49.5,30.07,South,180,4.6,12.6,49,0.00,,,0.00,VWS V14.01,2013-03-15 16:58:00,
2013-03-15 12:13:00,70.6,50.0,30.06,South,188,6.9,13.8,48,0.00,,,0.00,VWS V14.01,2013-03-15 17:13:00,
2013-03-15 12:28:00,71.6,50.9,30.05,SSW,203,6.9,14.9,48,0.00,,,0.00,VWS V14.01,2013-03-15 17:28:00,
2013-03-15 12:43:00,71.7,51.0,30.05,SW,215,5.8,17.2,48,0.00,,,0.00,VWS V14.01,2013-03-15 17:43:00,
2013-03-15 12:59:00,71.8,51.6,30.04,West,263,8.1,16.1,49,0.00,,,0.00,VWS V14.01,2013-03-15 17:59:00,
2013-03-15 13:13:00,72.4,52.2,30.04,South,183,6.9,14.9,49,0.00,,,0.00,VWS V14.01,2013-03-15 18:13:00,
2013-03-15 13:28:00,72.9,52.6,30.03,South,183,6.9,17.2,49,0.00,,,0.00,VWS V14.01,2013-03-15 18:28:00,
2013-03-15 13:43:00,73.2,52.9,30.02,South,184,9.2,18.4,49,0.00,,,0.00,VWS V14.01,2013-03-15 18:43:00,
2013-03-15 13:58:00,73.9,53.0,30.01,WSW,242,8.1,16.1,48,0.00,,,0.00,VWS V14.01,2013-03-15 18:58:00,
2013-03-15 14:13:00,74.9,53.3,30.00,SSW,210,12.6,16.1,47,0.00,,,0.00,VWS V14.01,2013-03-15 19:13:00,
2013-03-15 14:29:00,75.8,53.6,29.99,South,169,8.1,18.4,46,0.00,,,0.00,VWS V14.01,2013-03-15 19:29:00,
2013-03-15 14:43:00,75.6,53.4,29.98,SSE,158,5.8,17.2,46,0.00,,,0.00,VWS V14.01,2013-03-15 19:43:00,
2013-03-15 14:59:00,75.6,53.4,29.96,SE,138,6.9,17.2,46,0.00,,,0.00,VWS V14.01,2013-03-15 19:59:00,
2013-03-15 15:13:00,75.7,52.9,29.96,South,174,8.1,20.7,45,0.00,,,0.00,VWS V14.01,2013-03-15 20:13:00,
2013-03-15 15:28:00,76.3,53.4,29.96,SSE,149,8.1,18.4,45,0.00,,,0.00,VWS V14.01,2013-03-15 20:28:00,
2013-03-15 15:43:00,76.7,53.2,29.95,SE,143,5.8,16.1,44,0.00,,,0.00,VWS V14.01,2013-03-15 20:43:00,
2013-03-15 15:58:00,76.2,53.3,29.95,South,174,5.8,17.2,45,0.00,,,0.00,VWS V14.01,2013-03-15 20:58:00,
2013-03-15 16:13:00,76.8,53.3,29.95,SE,143,3.4,21.9,44,0.00,,,0.00,VWS V14.01,2013-03-15 21:13:00,
2013-03-15 16:29:00,76.6,53.7,29.94,South,186,4.6,17.2,45,0.00,,,0.00,VWS V14.01,2013-03-15 21:29:00,
2013-03-15 16:44:00,76.1,52.6,29.93,South,188,6.9,17.2,44,0.00,,,0.00,VWS V14.01,2013-03-15 21:44:00,
2013-03-15 16:58:00,76.4,52.3,29.93,South,190,11.5,16.1,43,0.00,,,0.00,VWS V14.01,2013-03-15 21:58:00,
2013-03-15 17:14:00,75.9,52.5,29.92,South,170,6.9,20.7,44,0.00,,,0.00,VWS V14.01,2013-03-15 22:14:00,
2013-03-15 17:28:00,75.6,52.2,29.92,South,183,6.9,21.9,44,0.00,,,0.00,VWS V14.01,2013-03-15 22:28:00,
2013-03-15 17:43:00,75.0,51.6,29.92,SSW,195,5.8,18.4,44,0.00,,,0.00,VWS V14.01,2013-03-15 22:43:00,
2013-03-15 17:58:00,73.9,51.8,29.91,WSW,245,11.5,16.1,46,0.00,,,0.00,VWS V14.01,2013-03-15 22:58:00,
2013-03-15 18:14:00,73.6,52.2,29.91,SSW,193,6.9,13.8,47,0.00,,,0.00,VWS V14.01,2013-03-15 23:14:00,
2013-03-15 18:28:00,73.1,51.7,29.91,SSW,212,5.8,17.2,47,0.00,,,0.00,VWS V14.01,2013-03-15 23:28:00,
2013-03-15 18:43:00,72.6,51.2,29.91,SSE,167,3.4,12.6,47,0.00,,,0.00,VWS V14.01,2013-03-15 23:43:00,
2013-03-15 18:58:00,72.1,50.8,29.90,West,259,4.6,16.1,47,0.00,,,0.00,VWS V14.01,2013-03-15 23:58:00,
2013-03-15 19:13:00,71.3,51.2,29.91,SSW,194,1.1,12.6,49,0.00,,,0.00,VWS V14.01,2013-03-16 00:13:00,
2013-03-15 19:29:00,70.7,51.2,29.91,SSW,208,4.6,13.8,50,0.00,,,0.00,VWS V14.01,2013-03-16 00:29:00,
2013-03-15 19:43:00,70.1,51.2,29.91,South,190,4.6,11.5,51,0.00,,,0.00,VWS V14.01,2013-03-16 00:43:00,
2013-03-15 19:58:00,69.7,50.2,29.90,SSE,163,5.8,13.8,50,0.00,,,0.00,VWS V14.01,2013-03-16 00:58:00,
2013-03-15 20:13:00,69.7,50.2,29.90,SSW,203,4.6,13.8,50,0.00,,,0.00,VWS V14.01,2013-03-16 01:13:00,
2013-03-15 20:28:00,69.4,50.0,29.90,South,190,3.4,14.9,50,0.00,,,0.00,VWS V14.01,2013-03-16 01:28:00,
2013-03-15 20:43:00,68.8,50.0,29.90,SSW,200,6.9,14.9,51,0.00,,,0.00,VWS V14.01,2013-03-16 01:43:00,
2013-03-15 20:58:00,68.4,49.6,29.90,South,176,1.1,12.6,51,0.00,,,0.00,VWS V14.01,2013-03-16 01:58:00,
2013-03-15 21:28:00,68.3,49.0,29.90,South,180,5.8,14.9,50,0.00,,,0.00,VWS V14.01,2013-03-16 02:28:00,
2013-03-15 21:43:00,68.2,48.3,29.90,SW,225,5.8,14.9,49,0.00,,,0.00,VWS V14.01,2013-03-16 02:43:00,
2013-03-15 21:59:00,68.1,47.7,29.90,WNW,284,1.1,10.3,48,0.00,,,0.00,VWS V14.01,2013-03-16 02:59:00,
2013-03-15 22:13:00,68.2,47.8,29.90,WSW,240,2.3,13.8,48,0.00,,,0.00,VWS V14.01,2013-03-16 03:13:00,
2013-03-15 22:28:00,68.2,47.2,29.90,SW,218,3.4,12.6,47,0.00,,,0.00,VWS V14.01,2013-03-16 03:28:00,
2013-03-15 22:43:00,68.2,46.7,29.89,WSW,238,4.6,13.8,46,0.00,,,0.00,VWS V14.01,2013-03-16 03:43:00,
2013-03-15 22:58:00,68.3,46.2,29.89,SW,225,4.6,14.9,45,0.00,,,0.00,VWS V14.01,2013-03-16 03:58:00,
2013-03-15 23:13:00,67.9,47.0,29.90,SW,235,3.4,16.1,47,0.00,,,0.00,VWS V14.01,2013-03-16 04:13:00,
2013-03-15 23:29:00,67.3,47.5,29.90,South,190,6.9,14.9,49,0.00,,,0.00,VWS V14.01,2013-03-16 04:29:00,
2013-03-15 23:44:00,66.8,47.6,29.89,SW,231,5.8,16.1,50,0.00,,,0.00,VWS V14.01,2013-03-16 04:44:00,
2013-03-15 23:59:00,66.4,47.7,29.89,SW,219,9.2,13.8,51,0.00,,,0.00,VWS V14.01,2013-03-16 04:59:00,